Regional Weather Roundup
Issued by NWS

Home | Current Version | Previous Version | Graphics & Text | Print | Product List | Glossary On
Versions: 1 2 3 4 5 6 7 8 9 10 11 12 13 14 15 16 17 18 19 20 21 22 23 24 25 26 27 28 29 30 31 32 33 34 35 36 37 38 39 40 41 42 43 44 45 46 47 48 49 50
000
ASUS43 KBIS 250401
RWRND

NORTH DAKOTA REGIONAL WEATHER ROUNDUP
NATIONAL WEATHER SERVICE BISMARCK ND
1100 PM CDT SUN MAY 24 2015

NOTE: "FAIR" INDICATES FEW OR NO CLOUDS BELOW 12,000 FEET WITH NO
SIGNIFICANT WEATHER AND/OR OBSTRUCTIONS TO VISIBILITY.


NDZ001>003-009>011-017-250500-
NORTHWEST NORTH DAKOTA

CITY           SKY/WX    TMP DP  RH WIND       PRES   REMARKS
WILLISTON      PTCLDY    54  44  69 CALM      29.92R
MINOT          MOCLDY    61  46  57 CALM      29.90S
MINOT AFB      PTCLDY    59  47  66 E3        29.90S
$$

NDZ018>021-031>035-040>046-250500-
SOUTHWEST NORTH DAKOTA

CITY           SKY/WX    TMP DP  RH WIND       PRES   REMARKS
BISMARCK       CLOUDY    57  54  89 E8        29.91R
DICKINSON      CLOUDY    57  48  72 CALM      29.90S
GARRISON         N/A     63  50  62 NE3       29.90S
HETTINGER ARPT CLOUDY    56  49  77 NE7       29.90F
$$

NDZ004>008-012>016-024-026-027-054-250500-
NORTHEAST NORTH DAKOTA

CITY           SKY/WX    TMP DP  RH WIND       PRES   REMARKS
GRAND FORKS    CLOUDY    60  52  74 N5        29.86F
GRND FRKS AFB  CLOUDY    58  52  80 N2        29.87F
DEVILS LAKE    CLOUDY    61  48  63 CALM      29.89F
$$

NDZ022-023-025-028>030-036>039-047>053-250500-
SOUTHEAST NORTH DAKOTA

CITY           SKY/WX    TMP DP  RH WIND       PRES   REMARKS
FARGO          CLOUDY    63  54  72 SE6       29.86F
JAMESTOWN      CLOUDY    59  55  87 W5        29.87F
$$




USA.gov is the U.S. government's official web portal to all federal, state and local government web resources and services.